Location: Unspecified
(0.0000°N, 0.0000°E)
Time: 16:04:04
(UTC+00:00)

deb r/b Kosmos R-14 - Pass Details

Date: 26 September 2024
Orbit: 468 x 812 km, 55.9° (Epoch: 12 October)

Event Time Altitude Azimuth Distance (km) Brightness Sun altitude
Rises 19:39:44 0° 214° (SSW) 3,332 ? -27.2°
Reaches altitude 10° 19:42:13 10° 215° (SW) 2,407 ? -27.8°
Enters shadow 19:47:41 76° 275° (W) 836 ? -29.1°
